GW6443 Weather Reports


time (UTC)temp
F
wind
direction
speed
knots
gust
knots
rain 1hr
in
rain 24hr
in
rain mn
in
humidity
%
barometer
mb
20260507164314 57 148 0.9 8.7 0.00 0.00 0.00 39 1009.7
20260507163811 59 233 2.6 6.1 0.00 0.00 0.00 37 1009.6
20260507163309 58 206 2.6 7.8 0.00 0.00 0.00 42 1010.1
20260507162804 58 313 4.3 5.2 0.00 0.00 0.00 46 1009.9
20260507162300 58 279 7.8 13.0 0.00 0.00 0.00 38 1009.7
20260507161758 57 221 1.7 8.7 0.00 0.00 0.00 40 1009.9
20260507161254 57 332 1.7 9.6 0.00 0.00 0.00 39 1010.1
20260507160750 59 296 3.5 5.2 0.00 0.00 0.00 36 1010.2
20260507160246 58 309 1.7 6.1 0.00 0.00 0.00 40 1010.1
20260507155743 59 328 5.2 5.2 0.00 0.00 0.00 41 1010.0
20260507155238 58 29 2.6 5.2 0.00 0.00 0.00 38 1010.0
20260507154735 57 150 1.7 8.7 0.00 0.00 0.00 38 1010.2
20260507154233 57 187 0.0 4.3 0.00 0.00 0.00 37 1010.2
20260507153729 57 255 1.7 6.1 0.00 0.00 0.00 37 1010.1
20260507153226 57 247 4.3 7.8 0.00 0.00 0.00 39 1010.3
20260507152722 56 241 3.5 5.2 0.00 0.00 0.00 44 1010.3
20260507152219 56 241 3.5 7.8 0.00 0.00 0.00 41 1010.6
20260507151715 56 251 3.5 8.7 0.00 0.00 0.00 41 1010.4
20260507151211 56 130 0.9 3.5 0.00 0.00 0.00 42 1010.7
20260507150708 56 21 2.6 9.6 0.00 0.00 0.00 39 1011.0
20260507150205 56 291 5.2 7.8 0.00 0.00 0.00 39 1010.8
20260507145701 56 147 1.7 11.3 0.00 0.00 0.00 38 1011.1
20260507145158 56 300 6.1 8.7 0.00 0.00 0.00 40 1011.2
20260507144654 56 13 1.7 7.0 0.00 0.00 0.00 38 1011.1
20260507144153 55 107 2.6 5.2 0.00 0.00 0.00 37 1011.0
20260507143649 56 234 4.3 13.9 0.00 0.00 0.00 39 1011.3
20260507143146 55 164 2.6 6.1 0.00 0.00 0.00 45 1011.2
20260507142642 55 319 3.5 5.2 0.00 0.00 0.00 42 1011.2
20260507142139 55 81 0.9 3.5 0.00 0.00 0.00 42 1011.3
20260507141635 54 316 3.5 7.0 0.00 0.00 0.00 44 1011.5
20260507141132 54 346 2.6 8.7 0.00 0.00 0.00 41 1011.5
20260507140628 54 35 3.5 7.0 0.00 0.00 0.00 43 1011.6
20260507140126 54 26 0.9 5.2 0.00 0.00 0.00 44 1011.8
20260507135623 53 282 3.5 5.2 0.00 0.00 0.00 46 1011.6
20260507135120 53 249 4.3 4.3 0.00 0.00 0.00 45 1011.6
20260507134616 53 262 1.7 4.3 0.00 0.00 0.00 48 1011.7
20260507134112 52 273 2.6 6.1 0.00 0.00 0.00 52 1011.8
20260507133608 51 148 1.7 5.2 0.00 0.00 0.00 49 1011.7
20260507133106 51 51 1.7 1.7 0.00 0.00 0.00 49 1011.8
20260507132603 50 263 4.3 4.3 0.00 0.00 0.00 52 1011.7
20260507132059 49 45 2.6 3.5 0.00 0.00 0.00 57 1011.8
20260507131556 49 119 4.3 5.2 0.00 0.00 0.00 61 1011.9
20260507131054 48 180 0.0 4.3 0.00 0.00 0.00 58 1011.8
20260507130550 48 78 3.5 4.3 0.00 0.00 0.00 61 1012.1
20260507130049 48 50 3.5 5.2 0.00 0.00 0.00 64 1012.0
20260507125547 48 106 2.6 5.2 0.00 0.00 0.00 63 1012.1
20260507125044 47 115 4.3 4.3 0.00 0.00 0.00 67 1012.2
20260507124540 47 120 4.3 5.2 0.00 0.00 0.00 66 1012.4
20260507124038 46 118 3.5 7.0 0.00 0.00 0.00 65 1012.3
20260507123536 46 137 1.7 6.1 0.00 0.00 0.00 67 1012.4
20260507123032 46 114 5.2 7.0 0.00 0.00 0.00 66 1012.2
20260507122528 46 116 3.5 5.2 0.00 0.00 0.00 67 1012.3
20260507122024 46 99 4.3 4.3 0.00 0.00 0.00 69 1012.2
20260507121520 45 120 4.3 6.1 0.00 0.00 0.00 68 1012.1
20260507121015 45 116 2.6 5.2 0.00 0.00 0.00 68 1012.1
20260507120512 44 130 3.5 4.3 0.00 0.00 0.00 70 1011.9
20260507120009 44 118 3.5 5.2 0.00 0.00 0.00 72 1012.0
20260507115505 44 101 2.6 4.3 0.00 0.00 0.00 72 1012.1
20260507115001 43 120 4.3 5.2 0.00 0.00 0.00 71 1012.1
20260507114457 43 96 2.6 3.5 0.00 0.00 0.00 75 1012.1
20260507113955 43 92 2.6 5.2 0.00 0.00 0.00 75 1012.2
20260507113452 43 121 2.6 3.5 0.00 0.00 0.00 73 1012.1
20260507112949 42 27 1.7 1.7 0.00 0.00 0.00 74 1012.0
20260507112446 42 216 0.0 1.7 0.00 0.00 0.00 76 1011.8
20260507111943 41 76 0.0 1.7 0.00 0.00 0.00 76 1012.0
20260507111441 41 359 2.6 3.5 0.00 0.00 0.00 78 1011.9
20260507110936 41 356 1.7 1.7 0.00 0.00 0.00 80 1011.6
20260507110433 40 240 1.7 2.6 0.00 0.00 0.00 82 1011.6
20260507105929 40 160 1.7 3.5 0.00 0.00 0.00 82 1011.7
20260507105427 40 275 1.7 2.6 0.00 0.00 0.00 82 1011.5
20260507104923 40 260 3.5 4.3 0.00 0.00 0.00 83 1011.6
20260507104420 39 137 0.9 2.6 0.00 0.00 0.00 84 1011.4
20260507103915 39 215 1.7 3.5 0.00 0.00 0.00 86 1011.4
20260507103413 39 181 1.7 3.5 0.00 0.00 0.00 86 1011.5
20260507102909 38 254 1.7 4.3 0.00 0.00 0.00 87 1011.3
20260507102406 38 255 3.5 3.5 0.00 0.00 0.00 89 1011.1
20260507101902 37 194 0.9 2.6 0.00 0.00 0.00 89 1011.1
20260507101402 37 201 0.9 1.7 0.00 0.00 0.00 89 1011.3
20260507100859 38 183 1.7 2.6 0.00 0.00 0.00 88 1011.4
20260507100357 38 260 2.6 3.5 0.00 0.00 0.00 88 1011.2
20260507095855 38 272 1.7 1.7 0.00 0.00 0.00 89 1011.4
20260507095351 38 183 0.9 1.7 0.00 0.00 0.00 88 1011.5
20260507094849 38 278 0.0 1.7 0.00 0.00 0.00 89 1011.3
20260507094345 38 323 0.0 1.7 0.00 0.00 0.00 89 1011.4
20260507093842 38 207 0.0 1.7 0.00 0.00 0.00 89 1011.2
20260507093340 38 66 0.0 1.7 0.00 0.00 0.00 90 1011.1
20260507092838 38 260 0.9 1.7 0.00 0.00 0.00 90 1011.3
20260507092334 38 99 0.9 1.7 0.00 0.00 0.00 90 1011.1
20260507091831 39 29 0.0 0.9 0.00 0.00 0.00 90 1011.2
20260507091327 39 13 0.0 1.7 0.00 0.00 0.00 89 1011.3
20260507090823 39 225 0.9 0.9 0.00 0.00 0.00 89 1011.3
20260507090319 39 218 0.0 0.9 0.00 0.00 0.00 88 1011.1
20260507085816 39 248 1.7 1.7 0.00 0.00 0.00 88 1011.1
20260507085313 40 206 0.9 1.7 0.00 0.00 0.00 87 1010.8
20260507084811 40 251 0.0 1.7 0.00 0.00 0.00 87 1011.0
20260507084307 40 252 1.7 1.7 0.00 0.00 0.00 86 1011.2
20260507083804 40 169 0.9 1.7 0.00 0.00 0.00 87 1011.0
20260507083301 40 202 0.0 1.7 0.00 0.00 0.00 86 1011.2
20260507082757 41 206 1.7 1.7 0.00 0.00 0.00 85 1011.1
20260507082253 41 235 0.9 1.7 0.00 0.00 0.00 84 1011.1
20260507081750 42 282 0.0 0.9 0.00 0.00 0.00 84 1011.2
20260507081246 42 147 0.0 0.9 0.00 0.00 0.00 83 1011.3
20260507080742 42 269 0.0 1.7 0.00 0.00 0.00 82 1011.3
20260507080239 43 246 0.9 0.9 0.00 0.00 0.00 81 1011.4
20260507075734 43 289 0.0 1.7 0.00 0.00 0.00 81 1011.4
20260507075231 43 246 0.0 1.7 0.00 0.00 0.00 81 1011.5
20260507074727 43 143 1.7 1.7 0.00 0.00 0.00 82 1011.4
20260507074225 43 160 0.0 1.7 0.00 0.00 0.00 81 1011.6
20260507073722 43 142 0.0 1.7 0.00 0.00 0.00 82 1011.4
20260507073218 44 147 0.9 1.7 0.00 0.00 0.00 83 1011.2
20260507072716 44 151 1.7 1.7 0.00 0.00 0.00 84 1011.3
20260507072213 44 124 1.7 1.7 0.00 0.00 0.00 82 1011.3
20260507071711 44 228 0.0 1.7 0.00 0.00 0.00 82 1011.2
20260507071207 44 21 0.9 1.7 0.00 0.00 0.00 82 1011.4
20260507070704 44 98 0.9 1.7 0.00 0.00 0.00 79 1011.4
20260507070201 44 139 0.0 0.0 0.00 0.00 0.00 79 1011.5
20260507065657 44 49 0.0 1.7 0.00 0.00 0.00 78 1011.3
20260507065154 44 131 0.9 1.7 0.00 0.00 0.00 76 1011.5
20260507064652 44 148 0.0 1.7 0.00 0.00 0.00 79 1011.4
20260507064150 44 121 0.9 1.7 0.00 0.00 0.00 79 1011.4
20260507063647 44 121 1.7 1.7 0.00 0.00 0.00 79 1011.5
20260507063144 44 109 0.9 1.7 0.00 0.00 0.00 78 1011.5
20260507062641 44 111 1.7 1.7 0.00 0.00 0.00 77 1011.5
20260507062138 45 122 1.7 1.7 0.00 0.00 0.00 79 1011.6
20260507061636 45 144 1.7 1.7 0.00 0.00 0.00 79 1011.4
20260507061134 45 111 0.9 1.7 0.00 0.00 0.00 79 1011.6
20260507060632 45 114 0.9 0.9 0.00 0.00 0.00 78 1011.7
20260507060128 45 269 0.0 1.7 0.00 0.00 0.00 78 1011.6
20260507055624 45 218 0.0 1.7 0.00 0.00 0.00 77 1011.6
20260507055120 45 188 0.0 0.9 0.00 0.00 0.00 76 1011.6
20260507054615 45 103 0.9 1.7 0.00 0.00 0.00 74 1011.8
20260507054113 45 166 0.0 0.9 0.00 0.00 0.00 75 1011.6
20260507053610 45 243 0.0 0.9 0.00 0.00 0.00 76 1011.6
20260507053109 45 89 0.0 1.7 0.00 0.00 0.00 76 1011.7
20260507052607 46 117 0.9 2.6 0.00 0.00 0.00 75 1011.7
20260507052103 46 156 0.0 1.7 0.00 0.00 0.00 76 1011.7
20260507051600 46 143 1.7 1.7 0.00 0.00 0.00 74 1011.6
20260507051057 46 130 1.7 1.7 0.00 0.00 0.00 73 1011.6
20260507050554 47 128 0.9 1.7 0.00 0.00 0.00 74 1011.6
20260507050050 47 87 1.7 2.6 0.00 0.00 0.00 71 1011.7
20260507045547 47 101 0.9 1.7 0.00 0.00 0.00 67 1012.0
20260507045044 47 131 0.0 1.7 0.00 0.00 0.00 69 1011.7
20260507044541 47 157 0.9 1.7 0.00 0.00 0.00 69 1011.8
20260507044038 47 123 1.7 1.7 0.00 0.00 0.00 69 1011.7
20260507043533 48 117 1.7 1.7 0.00 0.00 0.00 68 1011.9
20260507043031 48 130 0.9 1.7 0.00 0.00 0.00 70 1011.6
20260507042527 48 103 0.0 1.7 0.00 0.00 0.00 65 1011.7
20260507042022 48 115 0.9 1.7 0.00 0.00 0.00 64 1011.9
20260507041520 48 106 1.7 1.7 0.00 0.00 0.00 66 1011.9
20260507041017 48 149 0.9 1.7 0.00 0.00 0.00 69 1011.9
20260507040513 48 136 0.0 1.7 0.00 0.00 0.00 69 1012.0
20260507040009 48 132 0.0 1.7 0.00 0.13 0.13 71 1011.8
20260507035505 48 159 0.9 1.7 0.00 0.13 0.13 75 1012.0
20260507035002 49 140 1.7 1.7 0.00 0.13 0.13 72 1011.8
20260507034459 49 97 1.7 1.7 0.00 0.13 0.13 65 1011.3
20260507033957 49 83 0.9 1.7 0.00 0.13 0.13 64 1011.3
20260507033455 50 41 1.7 3.5 0.00 0.13 0.13 61 1011.4
20260507032952 50 49 1.7 3.5 0.00 0.13 0.13 63 1011.4
20260507032449 50 64 1.7 4.3 0.00 0.13 0.13 61 1011.5
20260507031944 50 41 1.7 2.6 0.00 0.13 0.13 62 1011.5
20260507031441 50 33 0.9 3.5 0.00 0.13 0.13 64 1011.7
20260507030938 50 89 0.9 3.5 0.00 0.13 0.13 65 1011.5
20260507030435 50 17 2.6 7.8 0.00 0.13 0.13 64 1011.4
20260507025932 50 344 1.7 5.2 0.00 0.13 0.13 67 1011.7
20260507025429 50 124 0.0 1.7 0.00 0.13 0.13 72 1011.6
20260507024927 50 26 4.3 4.3 0.00 0.13 0.13 72 1011.4
20260507024424 50 59 2.6 2.6 0.00 0.13 0.13 74 1011.2
20260507023920 50 51 4.3 6.1 0.00 0.13 0.13 72 1010.8
20260507023417 51 23 0.9 2.6 0.00 0.13 0.13 74 1011.0
20260507022914 51 20 0.0 3.5 0.00 0.13 0.13 73 1011.0
20260507022411 51 60 2.6 3.5 0.00 0.13 0.13 73 1011.0
20260507021907 51 48 1.7 2.6 0.00 0.13 0.13 75 1010.7
20260507021402 51 111 0.9 1.7 0.00 0.13 0.13 75 1010.4
20260507020900 51 55 2.6 2.6 0.00 0.13 0.13 75 1010.4
20260507020357 51 86 0.9 1.7 0.00 0.13 0.13 75 1010.6
20260507015854 51 38 0.9 1.7 0.00 0.13 0.13 76 1010.5
20260507015352 51 228 0.0 3.5 0.00 0.13 0.13 74 1010.4
20260507014848 51 275 3.5 4.3 0.00 0.13 0.13 75 1010.5
20260507014345 51 83 0.0 1.7 0.00 0.13 0.13 78 1010.5
20260507013841 51 50 0.0 1.7 0.00 0.13 0.13 78 1010.6
20260507013338 51 46 1.7 4.3 0.00 0.13 0.13 78 1010.5
20260507012836 51 54 2.6 3.5 0.00 0.13 0.13 82 1010.8
20260507012331 50 20 3.5 3.5 0.00 0.13 0.13 85 1011.1
20260507011829 50 99 1.7 2.6 0.00 0.13 0.13 85 1011.0
20260507011326 50 112 1.7 1.7 0.00 0.13 0.13 86 1010.7
20260507010825 50 95 0.0 1.7 0.00 0.13 0.13 86 1010.8
20260507010321 50 81 0.0 1.7 0.00 0.13 0.13 85 1010.8
20260507005819 50 95 1.7 1.7 0.00 0.13 0.13 85 1011.2
20260507005316 50 101 1.7 1.7 0.00 0.13 0.13 85 1011.1
20260507004812 50 95 2.6 2.6 0.00 0.13 0.13 85 1011.2
20260507004310 51 119 2.6 4.3 0.00 0.13 0.13 83 1011.2
20260507003806 51 121 1.7 1.7 0.00 0.13 0.13 83 1011.1
20260507003301 51 97 1.7 2.6 0.00 0.13 0.13 79 1010.8
20260507002757 51 92 0.0 0.9 0.00 0.13 0.13 78 1010.5
20260507002253 52 120 0.9 1.7 0.00 0.13 0.13 79 1010.7
20260507001751 52 114 1.7 1.7 0.00 0.13 0.13 78 1011.1
20260507001248 52 106 1.7 2.6 0.00 0.13 0.13 78 1010.8
20260507000744 52 176 0.9 3.5 0.00 0.13 0.13 77 1010.7
20260507000240 52 124 3.5 3.5 0.00 0.13 0.13 79 1010.5
20260506235737 52 156 1.7 1.7 0.00 0.13 0.13 81 1010.3
20260506235232 52 121 0.9 1.7 0.00 0.13 0.13 80 1010.2
20260506234729 52 66 1.7 3.5 0.00 0.13 0.13 81 1010.2
20260506234227 52 118 1.7 1.7 0.00 0.13 0.13 83 1010.2
20260506233724 52 104 1.7 2.6 0.00 0.13 0.13 81 1010.0
20260506233220 52 100 1.7 2.6 0.00 0.13 0.13 80 1009.9
20260506232717 52 88 1.7 2.6 0.00 0.13 0.13 78 1009.9
20260506232212 52 129 1.7 2.6 0.00 0.13 0.13 78 1009.8
20260506231709 52 46 3.5 4.3 0.00 0.13 0.13 79 1009.6
20260506231208 52 70 0.9 0.9 0.00 0.13 0.13 79 1009.7
20260506230704 52 108 0.0 1.7 0.00 0.13 0.13 79 1009.7
20260506230201 52 23 5.2 5.2 0.00 0.13 0.13 79 1009.8
20260506225657 53 297 1.7 3.5 0.00 0.13 0.13 79 1009.6
20260506225154 53 43 2.6 4.3 0.00 0.13 0.13 78 1009.4
20260506224651 53 232 2.6 7.8 0.00 0.13 0.13 78 1009.6
20260506224148 53 297 4.3 4.3 0.00 0.13 0.13 78 1009.8
20260506223644 53 16 2.6 7.8 0.00 0.13 0.13 78 1009.8
20260506223140 53 191 1.7 5.2 0.00 0.13 0.13 78 1009.5
20260506222637 53 10 1.7 4.3 0.00 0.13 0.13 79 1009.5
20260506222133 53 115 0.9 4.3 0.00 0.13 0.13 81 1009.5
20260506221631 54 180 0.9 3.5 0.00 0.13 0.13 80 1009.5
20260506221129 54 4 3.5 5.2 0.00 0.13 0.13 79 1009.2
20260506220625 54 73 0.0 3.5 0.00 0.13 0.13 79 1009.5
20260506220120 54 66 4.3 8.7 0.00 0.13 0.13 79 1009.1
20260506215618 54 359 1.7 3.5 0.00 0.13 0.13 79 1009.1
20260506215113 54 287 3.5 3.5 0.00 0.13 0.13 79 1009.2
20260506214610 54 50 0.0 3.5 0.00 0.13 0.13 79 1009.1
20260506214108 54 183 1.7 5.2 0.00 0.13 0.13 80 1009.0
20260506213606 54 257 1.7 5.2 0.00 0.13 0.13 80 1008.8
20260506213102 54 41 5.2 8.7 0.00 0.13 0.13 79 1008.6
20260506212559 54 250 4.3 4.3 0.00 0.13 0.13 80 1008.6
20260506212054 54 38 7.8 8.7 0.00 0.13 0.13 80 1008.4
20260506211550 54 220 0.0 5.2 0.00 0.13 0.13 81 1008.6
20260506211048 54 328 1.7 1.7 0.00 0.13 0.13 82 1008.5
20260506210544 54 159 1.7 3.5 0.00 0.13 0.13 81 1008.5
20260506210041 54 87 0.9 1.7 0.00 0.13 0.13 82 1008.1
20260506205537 54 114 0.9 3.5 0.00 0.13 0.13 83 1008.4
20260506205032 54 229 0.9 6.1 0.00 0.13 0.13 84 1008.1
20260506204531 54 208 0.9 3.5 0.00 0.13 0.13 84 1008.1
20260506204028 54 335 1.7 3.5 0.00 0.13 0.13 84 1008.0
20260506203526 53 19 2.6 4.3 0.00 0.13 0.13 85 1008.0
20260506203022 53 235 2.6 3.5 0.00 0.13 0.13 86 1008.3
20260506202520 54 15 2.6 8.7 0.00 0.13 0.13 85 1008.3
20260506202016 54 198 0.9 4.3 0.00 0.13 0.13 86 1008.0
20260506201514 54 275 1.7 4.3 0.00 0.13 0.13 86 1008.0
20260506201010 54 358 3.5 5.2 0.00 0.13 0.13 86 1008.0
20260506200506 55 68 1.7 3.5 0.00 0.13 0.13 85 1008.0
20260506200003 55 173 0.9 5.2 0.00 0.13 0.13 85 1008.0
20260506195500 55 287 1.7 7.8 0.00 0.13 0.13 84 1007.9
20260506194956 55 271 0.9 2.6 0.00 0.13 0.13 85 1007.9
20260506194454 55 115 1.7 5.2 0.00 0.13 0.13 84 1007.9
20260506193950 55 291 0.0 2.6 0.00 0.13 0.13 85 1007.9
20260506193448 55 243 1.7 2.6 0.00 0.13 0.13 85 1007.7
20260506192944 55 235 1.7 2.6 0.00 0.13 0.13 85 1007.8
20260506192441 55 287 2.6 2.6 0.00 0.13 0.13 86 1007.5
20260506191938 55 1 0.9 4.3 0.00 0.13 0.13 86 1007.6
20260506191434 55 224 3.5 6.1 0.00 0.13 0.13 86 1007.6
20260506190931 56 238 5.2 8.7 0.00 0.13 0.13 85 1007.6
20260506190428 56 106 2.6 3.5 0.00 0.13 0.13 85 1007.5
20260506185925 56 204 4.3 6.1 0.00 0.13 0.13 84 1007.6
20260506185422 57 214 1.7 4.3 0.00 0.13 0.13 83 1007.3
20260506184919 57 181 3.5 7.8 0.00 0.13 0.13 84 1007.3
20260506184416 57 176 1.7 4.3 0.00 0.13 0.13 84 1007.2
20260506183913 57 186 3.5 8.7 0.00 0.13 0.13 84 1007.1
20260506183408 57 199 2.6 5.2 0.00 0.13 0.13 86 1007.0
20260506182906 58 287 6.1 7.8 0.00 0.13 0.13 86 1006.9
20260506182403 59 211 0.0 4.3 0.00 0.13 0.13 83 1006.7
20260506181900 59 290 1.7 4.3 0.00 0.13 0.13 83 1006.6
20260506181358 59 132 0.9 3.5 0.00 0.13 0.13 86 1006.8
20260506180855 58 111 4.3 4.3 0.00 0.13 0.13 86 1006.7
20260506180351 58 110 2.6 2.6 0.00 0.13 0.13 87 1007.0
20260506175847 58 110 1.7 4.3 0.00 0.13 0.13 85 1006.9
20260506175344 59 96 1.7 1.7 0.00 0.13 0.13 86 1006.9
20260506174841 59 345 0.0 1.7 0.00 0.13 0.13 83 1006.8
20260506174339 59 117 1.7 2.6 0.00 0.13 0.13 83 1006.8
20260506173836 59 184 2.6 6.1 0.00 0.13 0.13 82 1006.9
20260506173333 59 193 3.5 3.5 0.00 0.13 0.13 84 1006.7
20260506172830 59 131 1.7 5.2 0.00 0.13 0.13 84 1006.6
20260506172326 59 215 1.7 2.6 0.00 0.13 0.13 85 1006.6
20260506171824 59 314 3.5 4.3 0.00 0.13 0.13 86 1006.6
20260506171321 59 272 4.3 5.2 0.00 0.13 0.13 86 1006.4
20260506170819 59 243 3.5 7.8 0.00 0.13 0.13 87 1006.5
20260506170314 59 296 2.6 5.2 0.02 0.13 0.13 90 1006.6
20260506165814 59 208 2.6 4.3 0.02 0.13 0.13 94 1006.4
20260506165310 59 251 3.5 7.8 0.02 0.13 0.13 95 1006.3
20260506164807 59 95 0.9 4.3 0.00 0.13 0.13 95 1006.1